This is the latest recevied weather packets stored in our database for station/object IR9AK-10. If no packets are shown the sender has not sent any weather packets the latest 10 day(s).
| Time | Temp. | Humidity | Pressure | Rain* | Wind** | Luminosity | Snow |
|---|---|---|---|---|---|---|---|
| 1778102547 | 21.11° C | 50% | 1056.5 hPa | - | - | - | - |
| 1778101949 | 21.11° C | 51% | 1056.3 hPa | - | - | - | - |
| 1778101349 | 21.67° C | 48% | 1056.2 hPa | - | - | - | - |
| 1778100750 | 21.67° C | 49% | 1056 hPa | - | - | - | - |
| 1778100151 | 21.67° C | 51% | 1055.9 hPa | - | - | - | - |
| 1778099551 | 22.22° C | 49% | 1056.1 hPa | - | - | - | - |
| 1778098952 | 22.22° C | 49% | 1056.6 hPa | - | - | - | - |
| 1778098354 | 22.22° C | 48% | 1056.8 hPa | - | - | - | - |
| 1778097754 | 22.22° C | 48% | 1056.7 hPa | - | - | - | - |
| 1778097156 | 22.22° C | 47% | 1057 hPa | - | - | - | - |
| 1778096556 | 22.22° C | 47% | 1057.1 hPa | - | - | - | - |
| 1778095958 | 22.22° C | 47% | 1057.2 hPa | - | - | - | - |
| 1778095359 | 22.22° C | 48% | 1057.3 hPa | - | - | - | - |
| 1778094759 | 22.22° C | 48% | 1057.1 hPa | - | - | - | - |
| 1778094159 | 22.22° C | 45% | 1057.1 hPa | - | - | - | - |
| 1778093560 | 22.22° C | 44% | 1057.4 hPa | - | - | - | - |
| 1778092960 | 22.78° C | 43% | 1057.5 hPa | - | - | - | - |
| 1778092360 | 22.78° C | 43% | 1057.4 hPa | - | - | - | - |
| 1778091761 | 22.78° C | 44% | 1057.5 hPa | - | - | - | - |
| 1778091163 | 22.78° C | 45% | 1057.4 hPa | - | - | - | - |
| 1778090569 | 22.78° C | 44% | 1057.4 hPa | - | - | - | - |
| 1778089969 | 22.78° C | 43% | 1057.5 hPa | - | - | - | - |
| 1778089371 | 22.78° C | 43% | 1057.3 hPa | - | - | - | - |
| 1778088493 | 22.78° C | 45% | 1057.2 hPa | - | - | - | - |
| 1778087890 | 23.33° C | 44% | 1057.2 hPa | - | - | - | - |
* Rain since midnight (hover to see other rain measurements)
** Current wind speed in m/s (hover to see current wind gust speed)